Location: Newark
(49.1000°N, 0.4667°W)
Time: 10:27:35
(UTC+00:00)

BEESAT 3 - Pass Details

Date: 05 July 2020
Orbit: 482 x 522 km, 64.9° (Epoch: 10 August)

Event Time Altitude Azimuth Distance (km) Brightness Sun altitude
Rises 00:09:29 0° 279° (W) 2,652 ? -18.1°
Reaches altitude 10° 00:12:43 10° 307° (NW) 1,767 ? -18.1°
Maximum altitude 00:14:40 13° 337° (NNW) 1,573 ? -18.1°
Drops below altitude 10° 00:16:37 10° 6° (N) 1,769 ? -18.1°
Sets 00:19:51 0° 35° (NE) 2,657 ? -18.1°
